Location: Copeville
(33.0796°N, 96.4155°W)
Time: 01:24:18
(UTC+00:00)

Nadezhda 4 Rocket - Pass Details

Date: 09 July 2022
Orbit: 949 x 992 km, 82.9° (Epoch: 07 August)

Event Time Altitude Azimuth Distance (km) Brightness Sun altitude
Rises 09:45:09 0° 138° (SE) 3,640 7.0 -17.8°
Reaches altitude 10° 09:48:49 10° 116° (ESE) 2,689 6.6 -17.2°
Maximum altitude 09:52:07 15° 83° (E) 2,332 6.7 -16.7°
Drops below altitude 10° 09:55:25 10° 50° (NE) 2,685 7.7 -16.2°
Sets 09:59:02 0° 29° (NNE) 3,630 8.4 -15.6°
